GPS BIIF-12

Last updated on Jan. 15, 2021, 6:30 a.m. UTC

1 41328U 16007A   21014.50401133  .00000017  00000-0  00000-0 0  9995
2 41328  54.8412 168.0627 0045842 221.4326 138.1760  2.00568900 36181
UTC
Height (km)
Latitude
Longitude
Inclination
Orbital Period
UTC large
Height (km)
Speed (km/s)
/
Latitude / Longitude
Inclination (degrees)
Orbital Period (minutes)
Azimuth
Elevation
Range (km)
Doppler Factor
iOS Compass Heading
iOS Angle

Next 30 passes for location: Hong Kong

Rise time Rise Azimuth (degrees) Set time Set Azimuth (degrees) Duration Max altitude (degrees)

No matching passes for this satellites